Location: Unspecified
(39.1833°N, 0.0000°E)
Time: 21:23:48
(UTC+00:00)

ISS - Visible Passes

Search period start: 15 November 2019 00:00
Search period end: 25 November 2019 00:00
Orbit: 412 x 421 km, 51.6° (Epoch: 16 November)

Date Brightness Start Highest point End Pass type
(mag) Time Alt. Az. Time Alt. Az. Time Alt. Az.
15 Nov -1.3 04:49:45 15° S 04:49:45 15° S 04:50:32 10° S visible
19 Nov -1.6 18:13:49 10° S 18:15:05 15° SSE 18:15:05 15° SSE visible
20 Nov -1.3 19:00:48 10° SW 19:02:02 21° SW 19:02:02 21° SW visible
21 Nov -3.6 18:12:29 10° SW 18:15:44 52° SE 18:15:56 51° ESE visible
22 Nov -2.6 17:24:30 10° SSW 17:27:24 28° SE 17:29:45 14° ENE visible
22 Nov -1.3 19:01:02 10° W 19:02:40 22° WNW 19:02:40 22° WNW visible
23 Nov -3.2 18:12:17 10° WSW 18:15:33 51° NW 18:16:23 39° NNE visible
24 Nov -3.8 17:23:44 10° SW 17:27:04 89° SE 17:30:01 13° NE visible
24 Nov -0.9 19:01:52 10° WNW 19:02:56 15° NW 19:02:56 15° NW visible
